Time,TemperatureF,DewpointF,PressureIn,WindDirection,WindDirectionDegrees,WindSpeedMPH,WindSpeedGustMPH,Humidity,HourlyPrecipIn,Conditions,Clouds,dailyrainin,SoftwareType,DateUTC
2013-06-22 00:01:00,68.1,66.3,30.12,SE,141,0.0,1.0,94,0.00,,SKC,0.00,VWS V13.00,2013-06-22 05:01:00,
2013-06-22 00:06:00,68.1,66.3,30.12,SE,141,0.0,0.0,94,0.00,,SKC,0.00,VWS V13.00,2013-06-22 05:06:00,
2013-06-22 00:11:00,68.1,66.3,30.12,SE,141,0.0,0.0,94,0.00,,SKC,0.00,VWS V13.00,2013-06-22 05:11:00,
2013-06-22 00:16:00,68.1,66.3,30.12,SE,141,0.0,0.0,94,0.00,,SKC,0.00,VWS V13.00,2013-06-22 05:16:00,
2013-06-22 00:21:00,68.1,66.6,30.12,SE,141,0.0,0.0,95,0.00,,SKC,0.00,VWS V13.00,2013-06-22 05:21:00,
2013-06-22 00:26:00,68.1,66.6,30.11,SE,141,0.0,0.0,95,0.00,,SKC,0.00,VWS V13.00,2013-06-22 05:26:00,
2013-06-22 00:31:00,68.1,66.3,30.11,SE,141,0.0,0.0,94,0.00,,SKC,0.00,VWS V13.00,2013-06-22 05:31:00,
2013-06-22 00:36:00,68.1,66.6,30.11,SE,141,0.0,0.0,95,0.00,,SKC,0.00,VWS V13.00,2013-06-22 05:36:00,
2013-06-22 00:41:00,68.2,66.7,30.11,SE,141,0.0,0.0,95,0.00,,SKC,0.00,VWS V13.00,2013-06-22 05:41:00,
2013-06-22 00:46:00,68.2,66.7,30.11,SE,141,0.0,0.0,95,0.00,,SKC,0.00,VWS V13.00,2013-06-22 05:46:00,
2013-06-22 00:51:00,68.1,66.3,30.11,SE,141,0.0,0.0,94,0.00,,SKC,0.00,VWS V13.00,2013-06-22 05:51:00,
2013-06-22 00:56:00,68.0,66.5,30.10,SE,141,0.0,0.0,95,0.00,,SKC,0.00,VWS V13.00,2013-06-22 05:56:00,
2013-06-22 01:01:00,67.9,66.4,30.10,SE,141,0.0,0.0,95,0.00,,SKC,0.00,VWS V13.00,2013-06-22 06:01:00,
2013-06-22 01:06:00,67.9,66.1,30.10,SE,141,0.0,0.0,94,0.00,,SKC,0.00,VWS V13.00,2013-06-22 06:06:00,
2013-06-22 01:10:00,67.9,66.1,30.10,SE,141,0.0,0.0,94,0.00,,SKC,0.00,VWS V13.00,2013-06-22 06:10:00,
2013-06-22 01:15:00,67.9,66.1,30.10,SE,141,0.0,0.0,94,0.00,,SKC,0.00,VWS V13.00,2013-06-22 06:15:00,
2013-06-22 01:20:00,67.9,66.1,30.10,SE,141,0.0,0.0,94,0.00,,SKC,0.00,VWS V13.00,2013-06-22 06:20:00,
2013-06-22 01:25:00,67.9,66.4,30.10,SE,141,0.0,0.0,95,0.00,,SKC,0.00,VWS V13.00,2013-06-22 06:25:00,
2013-06-22 01:30:00,67.8,66.3,30.10,SE,141,0.0,0.0,95,0.00,,SKC,0.00,VWS V13.00,2013-06-22 06:30:00,
2013-06-22 01:35:00,67.7,66.2,30.10,SE,141,0.0,0.0,95,0.00,,SKC,0.00,VWS V13.00,2013-06-22 06:35:00,
2013-06-22 01:40:00,67.7,66.2,30.10,SE,141,0.0,0.0,95,0.00,,SKC,0.00,VWS V13.00,2013-06-22 06:40:00,
2013-06-22 01:45:00,67.6,66.1,30.09,SE,141,0.0,0.0,95,0.00,,SKC,0.00,VWS V13.00,2013-06-22 06:45:00,
2013-06-22 01:50:00,67.4,65.9,30.09,SE,140,0.0,0.0,95,0.00,,SKC,0.00,VWS V13.00,2013-06-22 06:50:00,
2013-06-22 01:55:00,67.2,65.7,30.09,SE,141,0.0,0.0,95,0.00,,SKC,0.00,VWS V13.00,2013-06-22 06:55:00,
2013-06-22 02:00:00,67.2,65.7,30.09,SE,141,0.0,1.0,95,0.00,,SKC,0.00,VWS V13.00,2013-06-22 07:00:00,
2013-06-22 02:05:00,67.2,65.7,30.09,SE,141,0.0,2.0,95,0.00,,SKC,0.00,VWS V13.00,2013-06-22 07:05:00,
2013-06-22 02:10:00,67.4,65.9,30.09,East,100,0.0,4.0,95,0.00,,SKC,0.00,VWS V13.00,2013-06-22 07:10:00,
2013-06-22 02:15:00,67.7,65.9,30.09,ESE,107,1.0,4.0,94,0.00,,SKC,0.00,VWS V13.00,2013-06-22 07:15:00,
2013-06-22 02:20:00,67.9,65.8,30.09,East,94,0.0,4.0,93,0.00,,SKC,0.00,VWS V13.00,2013-06-22 07:20:00,
2013-06-22 02:25:00,68.1,65.7,30.09,East,94,1.0,4.0,92,0.00,,SKC,0.00,VWS V13.00,2013-06-22 07:25:00,
2013-06-22 02:30:00,68.4,66.0,30.09,East,89,2.0,4.0,92,0.00,,SKC,0.00,VWS V13.00,2013-06-22 07:30:00,
2013-06-22 02:35:00,68.5,66.1,30.09,ENE,78,2.0,3.0,92,0.00,,SKC,0.00,VWS V13.00,2013-06-22 07:35:00,
2013-06-22 02:40:00,68.5,66.1,30.09,ENE,78,2.0,4.0,92,0.00,,SKC,0.00,VWS V13.00,2013-06-22 07:40:00,
2013-06-22 02:45:00,68.4,65.7,30.09,ENE,78,0.0,4.0,91,0.00,,SKC,0.00,VWS V13.00,2013-06-22 07:45:00,
2013-06-22 02:50:00,68.3,65.9,30.09,ENE,78,1.0,4.0,92,0.00,,SKC,0.00,VWS V13.00,2013-06-22 07:50:00,
2013-06-22 02:55:00,68.1,65.7,30.09,ENE,78,0.0,4.0,92,0.00,,SKC,0.00,VWS V13.00,2013-06-22 07:55:00,
2013-06-22 03:00:00,68.0,65.6,30.09,East,97,0.0,4.0,92,0.00,,SKC,0.00,VWS V13.00,2013-06-22 08:00:00,
2013-06-22 03:05:00,68.1,65.7,30.09,East,99,2.0,4.0,92,0.00,,SKC,0.00,VWS V13.00,2013-06-22 08:05:00,
2013-06-22 03:10:00,68.3,65.6,30.09,East,87,0.0,4.0,91,0.00,,SKC,0.00,VWS V13.00,2013-06-22 08:10:00,
2013-06-22 03:15:00,68.4,65.7,30.08,East,99,0.0,4.0,91,0.00,,SKC,0.00,VWS V13.00,2013-06-22 08:15:00,
2013-06-22 03:20:00,68.5,65.8,30.08,East,98,0.0,4.0,91,0.00,,SKC,0.00,VWS V13.00,2013-06-22 08:20:00,
2013-06-22 03:25:00,68.4,65.7,30.08,East,98,0.0,4.0,91,0.00,,SKC,0.00,VWS V13.00,2013-06-22 08:25:00,
2013-06-22 03:30:00,68.4,65.7,30.08,East,98,0.0,4.0,91,0.00,,SKC,0.00,VWS V13.00,2013-06-22 08:30:00,
2013-06-22 03:35:00,68.3,65.6,30.09,East,98,0.0,1.0,91,0.00,,SKC,0.00,VWS V13.00,2013-06-22 08:35:00,
2013-06-22 03:40:00,68.3,65.6,30.09,East,98,0.0,1.0,91,0.00,,SKC,0.00,VWS V13.00,2013-06-22 08:40:00,
2013-06-22 03:45:00,68.5,65.8,30.09,East,98,0.0,1.0,91,0.00,,SKC,0.00,VWS V13.00,2013-06-22 08:45:00,
2013-06-22 03:50:00,68.5,65.8,30.08,East,99,0.0,2.0,91,0.00,,SKC,0.00,VWS V13.00,2013-06-22 08:50:00,
2013-06-22 03:55:00,68.6,65.9,30.08,SSE,163,1.0,4.0,91,0.00,,SKC,0.00,VWS V13.00,2013-06-22 08:55:00,
2013-06-22 04:00:00,68.6,65.9,30.08,SSE,163,0.0,4.0,91,0.00,,SKC,0.00,VWS V13.00,2013-06-22 09:00:00,
2013-06-22 04:05:00,68.5,65.8,30.09,SSE,163,0.0,0.0,91,0.00,,SKC,0.00,VWS V13.00,2013-06-22 09:05:00,
2013-06-22 04:10:00,68.5,65.8,30.09,SSE,163,0.0,1.0,91,0.00,,SKC,0.00,VWS V13.00,2013-06-22 09:10:00,
2013-06-22 04:15:00,68.5,65.8,30.09,SSE,163,0.0,1.0,91,0.00,,SKC,0.00,VWS V13.00,2013-06-22 09:15:00,
2013-06-22 04:20:00,68.5,65.8,30.09,SSE,163,0.0,1.0,91,0.00,,SKC,0.00,VWS V13.00,2013-06-22 09:20:00,
2013-06-22 04:25:00,68.5,65.8,30.09,SSE,163,0.0,1.0,91,0.00,,SKC,0.00,VWS V13.00,2013-06-22 09:25:00,
2013-06-22 04:30:00,68.4,65.7,30.10,SSE,163,0.0,1.0,91,0.00,,SKC,0.00,VWS V13.00,2013-06-22 09:30:00,
2013-06-22 04:35:00,68.1,65.4,30.10,SSE,163,0.0,0.0,91,0.00,,SKC,0.00,VWS V13.00,2013-06-22 09:35:00,
2013-06-22 04:40:00,67.8,65.4,30.10,SSE,163,0.0,0.0,92,0.00,,SKC,0.00,VWS V13.00,2013-06-22 09:40:00,
2013-06-22 04:45:00,67.4,65.0,30.10,SSE,150,0.0,1.0,92,0.00,,SKC,0.00,VWS V13.00,2013-06-22 09:45:00,
2013-06-22 04:50:00,67.1,65.0,30.10,SSE,150,0.0,1.0,93,0.00,,SKC,0.00,VWS V13.00,2013-06-22 09:50:00,
2013-06-22 04:55:00,67.0,65.2,30.10,SSE,150,0.0,1.0,94,0.00,,SKC,0.00,VWS V13.00,2013-06-22 09:55:00,
2013-06-22 05:00:00,67.0,65.2,30.10,SSE,150,0.0,1.0,94,0.00,,SKC,0.00,VWS V13.00,2013-06-22 10:00:00,
2013-06-22 05:05:00,67.2,65.4,30.11,SSE,150,0.0,2.0,94,0.00,,SKC,0.00,VWS V13.00,2013-06-22 10:05:00,
2013-06-22 05:10:00,67.4,65.6,30.10,SSE,150,0.0,2.0,94,0.00,,SKC,0.00,VWS V13.00,2013-06-22 10:10:00,
2013-06-22 05:15:00,67.5,65.7,30.10,SSE,150,0.0,2.0,94,0.00,,SKC,0.00,VWS V13.00,2013-06-22 10:15:00,
2013-06-22 05:20:00,67.6,65.8,30.11,SSE,150,0.0,2.0,94,0.00,,SKC,0.00,VWS V13.00,2013-06-22 10:20:00,
2013-06-22 05:25:00,67.7,65.6,30.11,SSE,150,0.0,2.0,93,0.00,,SKC,0.00,VWS V13.00,2013-06-22 10:25:00,
2013-06-22 05:30:00,67.7,65.6,30.11,SSE,150,0.0,2.0,93,0.00,,SKC,0.00,VWS V13.00,2013-06-22 10:30:00,
2013-06-22 05:35:00,67.7,65.6,30.11,SSE,150,1.0,1.0,93,0.00,,SKC,0.00,VWS V13.00,2013-06-22 10:35:00,
2013-06-22 05:40:00,67.7,65.6,30.11,SSE,150,0.0,2.0,93,0.00,,SKC,0.00,VWS V13.00,2013-06-22 10:40:00,
2013-06-22 05:45:00,67.6,65.5,30.11,SSE,150,0.0,2.0,93,0.00,,SKC,0.00,VWS V13.00,2013-06-22 10:45:00,
2013-06-22 05:50:00,67.6,65.5,30.11,SSE,150,0.0,2.0,93,0.00,,SKC,0.00,VWS V13.00,2013-06-22 10:50:00,
2013-06-22 05:55:00,67.3,64.9,30.11,SSE,150,0.0,2.0,92,0.00,,SKC,0.00,VWS V13.00,2013-06-22 10:55:00,
2013-06-22 06:00:00,66.9,64.8,30.11,SSE,150,0.0,2.0,93,0.00,,SKC,0.00,VWS V13.00,2013-06-22 11:00:00,
2013-06-22 06:05:00,66.6,64.8,30.11,SSE,150,0.0,0.0,94,0.00,,SKC,0.00,VWS V13.00,2013-06-22 11:05:00,
2013-06-22 06:10:00,66.4,64.6,30.11,SSE,150,0.0,1.0,94,0.00,,SKC,0.00,VWS V13.00,2013-06-22 11:10:00,
2013-06-22 06:15:00,66.5,65.0,30.11,SSE,150,0.0,1.0,95,0.00,,SKC,0.00,VWS V13.00,2013-06-22 11:15:00,
2013-06-22 06:20:00,66.8,65.6,30.12,SSE,150,0.0,1.0,96,0.00,,SKC,0.00,VWS V13.00,2013-06-22 11:20:00,
2013-06-22 06:25:00,67.0,65.5,30.12,SE,142,2.0,2.0,95,0.00,,SKC,0.00,VWS V13.00,2013-06-22 11:25:00,
2013-06-22 06:30:00,67.2,65.7,30.12,SE,141,1.0,2.0,95,0.00,,SKC,0.00,VWS V13.00,2013-06-22 11:30:00,
2013-06-22 06:35:00,67.5,66.0,30.12,SE,141,0.0,0.0,95,0.00,,SKC,0.00,VWS V13.00,2013-06-22 11:35:00,
2013-06-22 06:40:00,67.9,66.4,30.12,SE,141,0.0,1.0,95,0.00,,SKC,0.00,VWS V13.00,2013-06-22 11:40:00,
2013-06-22 06:45:00,68.5,66.7,30.12,East,94,0.0,4.0,94,0.00,,SKC,0.00,VWS V13.00,2013-06-22 11:45:00,
2013-06-22 06:50:00,69.2,66.8,30.12,East,97,2.0,4.0,92,0.00,,SKC,0.00,VWS V13.00,2013-06-22 11:50:00,
2013-06-22 06:55:00,70.1,67.4,30.12,East,95,3.0,5.0,91,0.00,,SKC,0.00,VWS V13.00,2013-06-22 11:55:00,
2013-06-22 07:00:00,70.8,67.7,30.12,SSE,149,1.0,5.0,90,0.00,,SKC,0.00,VWS V13.00,2013-06-22 12:00:00,
2013-06-22 07:05:00,71.5,67.4,30.12,SE,142,1.0,5.0,87,0.00,,SKC,0.00,VWS V13.00,2013-06-22 12:05:00,
2013-06-22 07:10:00,72.1,67.7,30.13,SE,142,1.0,5.0,86,0.00,,SKC,0.00,VWS V13.00,2013-06-22 12:10:00,
2013-06-22 07:15:00,72.6,67.8,30.13,SE,126,0.0,5.0,85,0.00,,SKC,0.00,VWS V13.00,2013-06-22 12:15:00,
2013-06-22 07:20:00,73.3,68.9,30.13,SE,126,0.0,5.0,86,0.00,,SKC,0.00,VWS V13.00,2013-06-22 12:20:00,
2013-06-22 07:25:00,73.9,68.4,30.13,ESE,114,0.0,5.0,83,0.00,,SKC,0.00,VWS V13.00,2013-06-22 12:25:00,
2013-06-22 07:30:00,74.3,68.8,30.13,SE,127,0.0,6.0,83,0.00,,SKC,0.00,VWS V13.00,2013-06-22 12:30:00,
2013-06-22 07:35:00,74.9,69.4,30.14,ESE,120,2.0,4.0,83,0.00,,SKC,0.00,VWS V13.00,2013-06-22 12:35:00,
2013-06-22 07:40:00,75.3,68.3,30.14,SE,139,3.0,5.0,79,0.00,,SKC,0.00,VWS V13.00,2013-06-22 12:40:00,
2013-06-22 07:45:00,75.4,69.2,30.14,SE,138,4.0,5.0,81,0.00,,SKC,0.00,VWS V13.00,2013-06-22 12:45:00,
2013-06-22 07:50:00,75.8,69.6,30.14,ESE,107,0.0,5.0,81,0.00,,SKC,0.00,VWS V13.00,2013-06-22 12:50:00,
2013-06-22 07:55:00,76.1,69.1,30.14,SE,143,4.0,6.0,79,0.00,,SKC,0.00,VWS V13.00,2013-06-22 12:55:00,
2013-06-22 08:00:00,76.3,68.6,30.14,SSE,149,1.0,6.0,77,0.00,,SKC,0.00,VWS V13.00,2013-06-22 13:00:00,
2013-06-22 08:05:00,76.6,69.6,30.15,East,87,0.0,4.0,79,0.00,,SKC,0.00,VWS V13.00,2013-06-22 13:05:00,
2013-06-22 08:10:00,77.0,70.0,30.15,SE,137,0.0,5.0,79,0.00,,SKC,0.00,VWS V13.00,2013-06-22 13:10:00,
2013-06-22 08:15:00,77.5,70.5,30.15,ESE,107,5.0,5.0,79,0.00,,SKC,0.00,VWS V13.00,2013-06-22 13:15:00,
2013-06-22 08:20:00,77.5,69.3,30.15,ESE,109,1.0,7.0,76,0.00,,SKC,0.00,VWS V13.00,2013-06-22 13:20:00,
2013-06-22 08:25:00,77.3,68.0,30.16,ESE,110,5.0,8.0,73,0.00,,SKC,0.00,VWS V13.00,2013-06-22 13:25:00,
2013-06-22 08:30:00,77.1,68.2,30.16,SE,132,4.0,8.0,74,0.00,,SKC,0.00,VWS V13.00,2013-06-22 13:30:00,
2013-06-22 08:35:00,77.1,68.2,30.16,East,92,2.0,7.0,74,0.00,,SKC,0.00,VWS V13.00,2013-06-22 13:35:00,
2013-06-22 08:40:00,77.1,68.2,30.16,SSE,153,1.0,8.0,74,0.00,,SKC,0.00,VWS V13.00,2013-06-22 13:40:00,
2013-06-22 08:45:00,77.2,67.5,30.16,SE,144,4.0,8.0,72,0.00,,SKC,0.00,VWS V13.00,2013-06-22 13:45:00,
2013-06-22 08:50:00,77.4,68.5,30.16,South,169,0.0,8.0,74,0.00,,SKC,0.00,VWS V13.00,2013-06-22 13:50:00,
2013-06-22 08:55:00,77.9,68.6,30.16,SE,136,2.0,8.0,73,0.00,,SKC,0.00,VWS V13.00,2013-06-22 13:55:00,
2013-06-22 09:00:00,78.1,68.3,30.16,SSE,160,3.0,8.0,72,0.00,,SKC,0.00,VWS V13.00,2013-06-22 14:00:00,
2013-06-22 09:05:00,78.1,67.5,30.16,SE,126,5.0,10.0,70,0.00,,SKC,0.00,VWS V13.00,2013-06-22 14:05:00,
2013-06-22 09:10:00,78.1,67.1,30.16,SE,133,7.0,10.0,69,0.00,,SKC,0.00,VWS V13.00,2013-06-22 14:10:00,
2013-06-22 09:15:00,78.0,66.2,30.17,SE,136,1.0,10.0,67,0.00,,SKC,0.00,VWS V13.00,2013-06-22 14:15:00,
2013-06-22 09:19:00,78.4,67.0,30.17,SE,127,0.0,10.0,68,0.00,,SKC,0.00,VWS V13.00,2013-06-22 14:19:00,
2013-06-22 09:24:00,78.7,67.7,30.17,SSE,147,5.0,10.0,69,0.00,,SKC,0.00,VWS V13.00,2013-06-22 14:24:00,
2013-06-22 09:29:00,78.8,69.0,30.16,South,173,5.0,10.0,72,0.00,,SKC,0.00,VWS V13.00,2013-06-22 14:29:00,
2013-06-22 09:34:00,79.1,69.3,30.16,SE,146,3.0,6.0,72,0.00,,SKC,0.00,VWS V13.00,2013-06-22 14:34:00,
2013-06-22 09:39:00,79.5,68.0,30.16,SE,132,4.0,7.0,68,0.00,,SKC,0.00,VWS V13.00,2013-06-22 14:39:00,
2013-06-22 09:44:00,79.5,69.3,30.16,SE,141,3.0,8.0,71,0.00,,SKC,0.00,VWS V13.00,2013-06-22 14:44:00,
2013-06-22 09:49:00,79.7,68.2,30.16,ESE,123,1.0,8.0,68,0.00,,SKC,0.00,VWS V13.00,2013-06-22 14:49:00,
2013-06-22 09:54:00,79.7,66.0,30.16,SSE,159,4.0,11.0,63,0.00,,SKC,0.00,VWS V13.00,2013-06-22 14:54:00,
2013-06-22 09:59:00,79.7,67.3,30.16,SE,146,4.0,11.0,66,0.00,,SKC,0.00,VWS V13.00,2013-06-22 14:59:00,
2013-06-22 10:04:00,79.7,67.8,30.17,South,175,6.0,8.0,67,0.00,,SKC,0.00,VWS V13.00,2013-06-22 15:04:00,
2013-06-22 10:09:00,79.8,68.7,30.17,SE,143,2.0,9.0,69,0.00,,SKC,0.00,VWS V13.00,2013-06-22 15:09:00,
2013-06-22 10:14:00,80.1,67.7,30.17,SSW,192,2.0,9.0,66,0.00,,SKC,0.00,VWS V13.00,2013-06-22 15:14:00,
2013-06-22 10:19:00,80.4,66.2,30.17,ESE,103,6.0,10.0,62,0.00,,SKC,0.00,VWS V13.00,2013-06-22 15:19:00,
2013-06-22 10:24:00,80.3,66.1,30.17,SE,138,2.0,10.0,62,0.00,,SKC,0.00,VWS V13.00,2013-06-22 15:24:00,
2013-06-22 10:29:00,80.4,66.2,30.17,South,173,6.0,10.0,62,0.00,,SKC,0.00,VWS V13.00,2013-06-22 15:29:00,
2013-06-22 10:34:00,80.5,67.2,30.17,East,82,3.0,7.0,64,0.00,,SKC,0.00,VWS V13.00,2013-06-22 15:34:00,
2013-06-22 10:39:00,80.5,65.8,30.17,SSE,163,5.0,9.0,61,0.00,,SKC,0.00,VWS V13.00,2013-06-22 15:39:00,
2013-06-22 10:44:00,80.5,65.8,30.17,SSE,154,7.0,11.0,61,0.00,,SKC,0.00,VWS V13.00,2013-06-22 15:44:00,
2013-06-22 10:49:00,80.2,64.1,30.17,SE,132,8.0,11.0,58,0.00,,SKC,0.00,VWS V13.00,2013-06-22 15:49:00,
2013-06-22 10:54:00,80.1,65.0,30.17,ESE,107,6.0,11.0,60,0.00,,SKC,0.00,VWS V13.00,2013-06-22 15:54:00,
2013-06-22 10:59:00,80.4,66.2,30.17,SE,138,7.0,11.0,62,0.00,,SKC,0.00,VWS V13.00,2013-06-22 15:59:00,
2013-06-22 11:04:00,80.5,65.3,30.17,SSE,154,6.0,9.0,60,0.00,,SKC,0.00,VWS V13.00,2013-06-22 16:04:00,
2013-06-22 11:09:00,80.5,66.8,30.17,ESE,120,2.0,9.0,63,0.00,,SKC,0.00,VWS V13.00,2013-06-22 16:09:00,
2013-06-22 11:14:00,80.6,67.3,30.17,SSE,147,5.0,9.0,64,0.00,,SKC,0.00,VWS V13.00,2013-06-22 16:14:00,
2013-06-22 11:19:00,80.9,67.6,30.17,East,82,4.0,9.0,64,0.00,,SKC,0.00,VWS V13.00,2013-06-22 16:19:00,
2013-06-22 11:24:00,81.5,68.6,30.17,SSW,200,5.0,9.0,65,0.00,,SKC,0.00,VWS V13.00,2013-06-22 16:24:00,
2013-06-22 11:29:00,81.8,67.5,30.16,ESE,111,4.0,9.0,62,0.00,,SKC,0.00,VWS V13.00,2013-06-22 16:29:00,
2013-06-22 11:34:00,81.8,66.6,30.16,ENE,69,5.0,9.0,60,0.00,,SKC,0.00,VWS V13.00,2013-06-22 16:34:00,
2013-06-22 11:39:00,81.4,68.1,30.16,ENE,77,5.0,9.0,64,0.00,,SKC,0.00,VWS V13.00,2013-06-22 16:39:00,
2013-06-22 11:44:00,80.9,66.7,30.17,South,169,5.0,9.0,62,0.00,,SKC,0.00,VWS V13.00,2013-06-22 16:44:00,
2013-06-22 11:49:00,81.2,67.9,30.16,SE,130,0.0,9.0,64,0.00,,SKC,0.00,VWS V13.00,2013-06-22 16:49:00,
2013-06-22 11:54:00,81.5,67.2,30.16,SSE,158,3.0,9.0,62,0.00,,SKC,0.00,VWS V13.00,2013-06-22 16:54:00,
2013-06-22 11:59:00,81.0,66.3,30.16,East,100,7.0,9.0,61,0.00,,SKC,0.00,VWS V13.00,2013-06-22 16:59:00,
2013-06-22 12:04:00,81.1,66.4,30.16,ESE,114,1.0,5.0,61,0.00,,SKC,0.00,VWS V13.00,2013-06-22 17:04:00,
2013-06-22 12:09:00,81.1,67.3,30.16,East,89,0.0,7.0,63,0.00,,SKC,0.00,VWS V13.00,2013-06-22 17:09:00,
2013-06-22 12:14:00,81.0,67.7,30.16,SSW,192,4.0,7.0,64,0.00,,SKC,0.00,VWS V13.00,2013-06-22 17:14:00,
2013-06-22 12:19:00,80.9,66.2,30.16,East,80,2.0,7.0,61,0.00,,SKC,0.00,VWS V13.00,2013-06-22 17:19:00,
2013-06-22 12:24:00,81.3,68.4,30.15,SE,144,3.0,7.0,65,0.00,,SKC,0.00,VWS V13.00,2013-06-22 17:24:00,
2013-06-22 12:29:00,81.9,66.7,30.15,ENE,76,2.0,8.0,60,0.00,,SKC,0.00,VWS V13.00,2013-06-22 17:29:00,
2013-06-22 12:34:00,82.3,66.6,30.15,SSE,163,1.0,7.0,59,0.00,,SKC,0.00,VWS V13.00,2013-06-22 17:34:00,
2013-06-22 12:39:00,82.6,67.8,30.15,ESE,105,10.0,10.0,61,0.00,,SKC,0.00,VWS V13.00,2013-06-22 17:39:00,
2013-06-22 12:44:00,82.4,64.6,30.15,ESE,113,10.0,11.0,55,0.00,,SKC,0.00,VWS V13.00,2013-06-22 17:44:00,
2013-06-22 12:49:00,82.3,65.6,30.15,ESE,113,5.0,11.0,57,0.00,,SKC,0.00,VWS V13.00,2013-06-22 17:49:00,
2013-06-22 12:54:00,82.3,67.5,30.15,East,97,4.0,13.0,61,0.00,,SKC,0.00,VWS V13.00,2013-06-22 17:54:00,
2013-06-22 12:59:00,82.3,65.6,30.14,SSE,153,6.0,13.0,57,0.00,,SKC,0.00,VWS V13.00,2013-06-22 17:59:00,
2013-06-22 13:04:00,82.4,64.1,30.14,NE,51,4.0,9.0,54,0.00,,SKC,0.00,VWS V13.00,2013-06-22 18:04:00,
2013-06-22 13:09:00,82.5,66.7,30.14,East,79,7.0,10.0,59,0.00,,SKC,0.00,VWS V13.00,2013-06-22 18:09:00,
2013-06-22 13:14:00,82.8,66.0,30.14,ESE,114,5.0,10.0,57,0.00,,SKC,0.00,VWS V13.00,2013-06-22 18:14:00,
2013-06-22 13:19:00,83.2,63.8,30.14,SSW,206,0.0,10.0,52,0.00,,SKC,0.00,VWS V13.00,2013-06-22 18:19:00,
2013-06-22 13:24:00,83.3,64.9,30.13,SSW,205,5.0,10.0,54,0.00,,SKC,0.00,VWS V13.00,2013-06-22 18:24:00,
2013-06-22 13:29:00,83.1,63.7,30.13,ESE,123,3.0,12.0,52,0.00,,SKC,0.00,VWS V13.00,2013-06-22 18:29:00,
2013-06-22 13:34:00,83.0,66.2,30.13,SE,140,4.0,6.0,57,0.00,,SKC,0.00,VWS V13.00,2013-06-22 18:34:00,
2013-06-22 13:39:00,83.2,65.9,30.13,South,173,0.0,6.0,56,0.00,,SKC,0.00,VWS V13.00,2013-06-22 18:39:00,
2013-06-22 13:44:00,83.4,64.0,30.13,SE,145,1.0,8.0,52,0.00,,SKC,0.00,VWS V13.00,2013-06-22 18:44:00,
2013-06-22 13:49:00,83.2,65.9,30.12,SSW,201,0.0,8.0,56,0.00,,SKC,0.00,VWS V13.00,2013-06-22 18:49:00,
2013-06-22 13:54:00,83.3,68.0,30.12,SE,134,7.0,9.0,60,0.00,,SKC,0.00,VWS V13.00,2013-06-22 18:54:00,
2013-06-22 13:59:00,83.7,66.9,30.12,South,190,1.0,9.0,57,0.00,,SKC,0.00,VWS V13.00,2013-06-22 18:59:00,
2013-06-22 14:04:00,83.6,65.7,30.11,South,172,4.0,7.0,55,0.00,,SKC,0.00,VWS V13.00,2013-06-22 19:04:00,
2013-06-22 14:09:00,83.7,65.8,30.11,South,175,5.0,7.0,55,0.00,,SKC,0.00,VWS V13.00,2013-06-22 19:09:00,
2013-06-22 14:14:00,83.4,67.6,30.11,SW,218,5.0,8.0,59,0.00,,SKC,0.00,VWS V13.00,2013-06-22 19:14:00,
2013-06-22 14:19:00,83.5,64.6,30.11,SSE,150,4.0,9.0,53,0.00,,SKC,0.00,VWS V13.00,2013-06-22 19:19:00,
2013-06-22 14:24:00,83.9,65.5,30.11,SE,127,6.0,9.0,54,0.00,,SKC,0.00,VWS V13.00,2013-06-22 19:24:00,
2013-06-22 14:29:00,83.6,65.2,30.11,ENE,77,1.0,9.0,54,0.00,,SKC,0.00,VWS V13.00,2013-06-22 19:29:00,
2013-06-22 14:34:00,82.8,66.0,30.11,East,96,6.0,6.0,57,0.00,,SKC,0.00,VWS V13.00,2013-06-22 19:34:00,
2013-06-22 14:39:00,82.2,65.0,30.11,SW,231,2.0,8.0,56,0.00,,SKC,0.00,VWS V13.00,2013-06-22 19:39:00,
2013-06-22 14:44:00,82.4,67.6,30.11,SSE,158,2.0,8.0,61,0.00,,SKC,0.00,VWS V13.00,2013-06-22 19:44:00,
2013-06-22 14:49:00,82.8,66.0,30.10,East,90,1.0,8.0,57,0.00,,SKC,0.00,VWS V13.00,2013-06-22 19:49:00,
2013-06-22 14:54:00,83.5,67.7,30.10,East,85,1.0,8.0,59,0.00,,SKC,0.00,VWS V13.00,2013-06-22 19:54:00,
2013-06-22 14:59:00,84.1,65.1,30.09,ESE,115,7.0,10.0,53,0.00,,SKC,0.00,VWS V13.00,2013-06-22 19:59:00,
2013-06-22 15:04:00,83.9,66.5,30.09,ESE,108,4.0,4.0,56,0.00,,SKC,0.00,VWS V13.00,2013-06-22 20:04:00,
2013-06-22 15:09:00,84.0,67.1,30.09,ESE,121,2.0,7.0,57,0.00,,SKC,0.00,VWS V13.00,2013-06-22 20:09:00,
2013-06-22 15:14:00,83.9,64.9,30.09,East,80,6.0,10.0,53,0.00,,SKC,0.00,VWS V13.00,2013-06-22 20:14:00,
2013-06-22 15:19:00,83.0,65.2,30.09,SSE,150,6.0,10.0,55,0.00,,SKC,0.00,VWS V13.00,2013-06-22 20:19:00,
2013-06-22 15:24:00,82.6,66.3,30.09,East,88,4.0,10.0,58,0.00,,SKC,0.00,VWS V13.00,2013-06-22 20:24:00,
2013-06-22 15:29:00,83.2,67.4,30.08,SE,146,6.0,10.0,59,0.00,,SKC,0.00,VWS V13.00,2013-06-22 20:29:00,
2013-06-22 15:34:00,83.5,64.6,30.08,SE,137,2.0,4.0,53,0.00,,SKC,0.00,VWS V13.00,2013-06-22 20:34:00,
2013-06-22 15:39:00,83.9,65.5,30.08,East,101,4.0,10.0,54,0.00,,SKC,0.00,VWS V13.00,2013-06-22 20:39:00,
2013-06-22 15:44:00,83.9,65.5,30.08,SE,130,1.0,10.0,54,0.00,,SKC,0.00,VWS V13.00,2013-06-22 20:44:00,
2013-06-22 15:49:00,84.1,65.7,30.08,SE,130,5.0,10.0,54,0.00,,SKC,0.00,VWS V13.00,2013-06-22 20:49:00,
2013-06-22 15:54:00,84.0,62.8,30.08,SE,135,4.0,10.0,49,0.00,,SKC,0.00,VWS V13.00,2013-06-22 20:54:00,
2013-06-22 15:59:00,84.2,66.8,30.08,SE,146,7.0,10.0,56,0.00,,SKC,0.00,VWS V13.00,2013-06-22 20:59:00,
2013-06-22 16:04:00,84.2,66.3,30.08,SSE,164,4.0,7.0,55,0.00,,SKC,0.00,VWS V13.00,2013-06-22 21:04:00,
2013-06-22 16:09:00,84.1,65.1,30.07,ESE,119,2.0,9.0,53,0.00,,SKC,0.00,VWS V13.00,2013-06-22 21:09:00,
2013-06-22 16:14:00,83.8,64.3,30.07,SSE,150,5.0,10.0,52,0.00,,SKC,0.00,VWS V13.00,2013-06-22 21:14:00,
2013-06-22 16:19:00,83.6,67.3,30.07,SSW,194,2.0,10.0,58,0.00,,SKC,0.00,VWS V13.00,2013-06-22 21:19:00,
2013-06-22 16:24:00,83.9,67.6,30.07,ESE,111,6.0,10.0,58,0.00,,SKC,0.00,VWS V13.00,2013-06-22 21:24:00,
2013-06-22 16:29:00,84.0,65.6,30.07,SSE,158,2.0,10.0,54,0.00,,SKC,0.00,VWS V13.00,2013-06-22 21:29:00,
2013-06-22 16:34:00,83.9,64.4,30.06,SE,127,0.0,6.0,52,0.00,,SKC,0.00,VWS V13.00,2013-06-22 21:34:00,
2013-06-22 16:39:00,83.6,65.7,30.06,SE,124,9.0,9.0,55,0.00,,SKC,0.00,VWS V13.00,2013-06-22 21:39:00,
2013-06-22 16:44:00,83.2,65.9,30.06,South,184,5.0,10.0,56,0.00,,SKC,0.00,VWS V13.00,2013-06-22 21:44:00,
2013-06-22 16:49:00,83.3,66.0,30.05,SSE,148,2.0,10.0,56,0.00,,SKC,0.00,VWS V13.00,2013-06-22 21:49:00,
2013-06-22 16:54:00,83.4,65.6,30.05,South,175,4.0,10.0,55,0.00,,SKC,0.00,VWS V13.00,2013-06-22 21:54:00,
2013-06-22 16:59:00,83.5,66.7,30.05,South,186,2.0,10.0,57,0.00,,SKC,0.00,VWS V13.00,2013-06-22 21:59:00,
2013-06-22 17:04:00,83.2,65.4,30.04,SE,124,7.0,10.0,55,0.00,,SKC,0.00,VWS V13.00,2013-06-22 22:04:00,
2013-06-22 17:09:00,82.9,65.1,30.04,ESE,115,4.0,10.0,55,0.00,,SKC,0.00,VWS V13.00,2013-06-22 22:09:00,
2013-06-22 17:14:00,82.8,66.0,30.04,SE,130,1.0,10.0,57,0.00,,SKC,0.00,VWS V13.00,2013-06-22 22:14:00,
2013-06-22 17:19:00,82.9,66.6,30.03,SE,127,6.0,10.0,58,0.00,,SKC,0.00,VWS V13.00,2013-06-22 22:19:00,
2013-06-22 17:24:00,82.9,66.1,30.03,SSE,149,6.0,10.0,57,0.00,,SKC,0.00,VWS V13.00,2013-06-22 22:24:00,
2013-06-22 17:29:00,82.8,64.5,30.03,ESE,120,4.0,10.0,54,0.00,,SKC,0.00,VWS V13.00,2013-06-22 22:29:00,
2013-06-22 17:34:00,82.7,64.9,30.03,ESE,106,4.0,7.0,55,0.00,,SKC,0.00,VWS V13.00,2013-06-22 22:34:00,
2013-06-22 17:39:00,82.6,65.3,30.03,South,172,5.0,7.0,56,0.00,,SKC,0.00,VWS V13.00,2013-06-22 22:39:00,
2013-06-22 17:44:00,82.3,66.1,30.03,SSE,148,4.0,9.0,58,0.00,,SKC,0.00,VWS V13.00,2013-06-22 22:44:00,
2013-06-22 17:49:00,82.4,64.6,30.03,SSE,151,4.0,9.0,55,0.00,,SKC,0.00,VWS V13.00,2013-06-22 22:49:00,
2013-06-22 17:54:00,82.4,65.1,30.03,ESE,123,0.0,9.0,56,0.00,,SKC,0.00,VWS V13.00,2013-06-22 22:54:00,
2013-06-22 17:59:00,82.4,65.1,30.03,SE,125,4.0,9.0,56,0.00,,SKC,0.00,VWS V13.00,2013-06-22 22:59:00,
2013-06-22 18:04:00,82.3,65.6,30.02,SSE,160,3.0,7.0,57,0.00,,SKC,0.00,VWS V13.00,2013-06-22 23:04:00,
2013-06-22 18:09:00,82.1,65.4,30.02,ESE,120,5.0,7.0,57,0.00,,SKC,0.00,VWS V13.00,2013-06-22 23:09:00,
2013-06-22 18:14:00,81.9,65.7,30.03,SE,132,7.0,8.0,58,0.00,,SKC,0.00,VWS V13.00,2013-06-22 23:14:00,
2013-06-22 18:19:00,81.7,65.5,30.03,SE,136,0.0,8.0,58,0.00,,SKC,0.00,VWS V13.00,2013-06-22 23:19:00,
2013-06-22 18:23:00,81.7,65.0,30.03,South,188,2.0,8.0,57,0.00,,SKC,0.00,VWS V13.00,2013-06-22 23:23:00,
2013-06-22 18:28:00,81.4,65.7,30.03,SSE,150,4.0,8.0,59,0.00,,SKC,0.00,VWS V13.00,2013-06-22 23:28:00,
2013-06-22 18:33:00,81.3,65.1,30.03,SSE,168,4.0,6.0,58,0.00,,SKC,0.00,VWS V13.00,2013-06-22 23:33:00,
2013-06-22 18:38:00,81.0,64.8,30.03,SE,146,2.0,6.0,58,0.00,,SKC,0.00,VWS V13.00,2013-06-22 23:38:00,
2013-06-22 18:43:00,80.7,65.1,30.04,SSE,165,2.0,7.0,59,0.00,,SKC,0.00,VWS V13.00,2013-06-22 23:43:00,
2013-06-22 18:48:00,80.5,65.3,30.03,SSE,165,0.0,7.0,60,0.00,,SKC,0.00,VWS V13.00,2013-06-22 23:48:00,
2013-06-22 18:53:00,80.3,65.2,30.03,SSE,152,0.0,7.0,60,0.00,,SKC,0.00,VWS V13.00,2013-06-22 23:53:00,
2013-06-22 18:58:00,80.2,65.1,30.04,South,179,3.0,7.0,60,0.00,,SKC,0.00,VWS V13.00,2013-06-22 23:58:00,
2013-06-22 19:03:00,79.9,64.3,30.03,SSE,166,2.0,4.0,59,0.00,,SKC,0.00,VWS V13.00,2013-06-23 00:03:00,
2013-06-22 19:08:00,79.7,64.6,30.03,SSE,157,0.0,4.0,60,0.00,,SKC,0.00,VWS V13.00,2013-06-23 00:08:00,
2013-06-22 19:13:00,79.4,64.8,30.04,North,355,0.0,4.0,61,0.00,,SKC,0.00,VWS V13.00,2013-06-23 00:13:00,
2013-06-22 19:18:00,79.1,64.5,30.03,SE,139,0.0,4.0,61,0.00,,SKC,0.00,VWS V13.00,2013-06-23 00:18:00,
2013-06-22 19:23:00,78.8,64.7,30.03,NE,34,0.0,4.0,62,0.00,,SKC,0.00,VWS V13.00,2013-06-23 00:23:00,
2013-06-22 19:28:00,78.5,64.4,30.04,WSW,247,0.0,4.0,62,0.00,,SKC,0.00,VWS V13.00,2013-06-23 00:28:00,
2013-06-22 19:33:00,78.2,64.1,30.04,WSW,250,0.0,1.0,62,0.00,,SKC,0.00,VWS V13.00,2013-06-23 00:33:00,
2013-06-22 19:38:00,77.8,64.2,30.04,WSW,250,0.0,1.0,63,0.00,,SKC,0.00,VWS V13.00,2013-06-23 00:38:00,
2013-06-22 19:43:00,77.5,64.4,30.04,SSW,192,0.0,1.0,64,0.00,,SKC,0.00,VWS V13.00,2013-06-23 00:43:00,
2013-06-22 19:48:00,77.1,65.3,30.04,SSW,192,0.0,1.0,67,0.00,,SKC,0.00,VWS V13.00,2013-06-23 00:48:00,
2013-06-22 19:53:00,76.3,64.6,30.04,SSW,192,0.0,1.0,67,0.00,,SKC,0.00,VWS V13.00,2013-06-23 00:53:00,
2013-06-22 19:58:00,75.8,64.9,30.04,SSW,192,0.0,1.0,69,0.00,,SKC,0.00,VWS V13.00,2013-06-23 00:58:00,
2013-06-22 20:03:00,75.5,64.6,30.04,SSW,192,0.0,0.0,69,0.00,,SKC,0.00,VWS V13.00,2013-06-23 01:03:00,
2013-06-22 20:08:00,75.1,65.5,30.05,SSW,192,0.0,0.0,72,0.00,,SKC,0.00,VWS V13.00,2013-06-23 01:08:00,
2013-06-22 20:13:00,74.4,64.4,30.05,SSW,192,0.0,1.0,71,0.00,,SKC,0.00,VWS V13.00,2013-06-23 01:13:00,
2013-06-22 20:18:00,74.1,64.5,30.05,SSW,192,0.0,1.0,72,0.00,,SKC,0.00,VWS V13.00,2013-06-23 01:18:00,
2013-06-22 20:23:00,73.7,64.5,30.05,SSW,192,0.0,1.0,73,0.00,,SKC,0.00,VWS V13.00,2013-06-23 01:23:00,
2013-06-22 20:28:00,73.3,64.9,30.06,SSW,192,0.0,1.0,75,0.00,,SKC,0.00,VWS V13.00,2013-06-23 01:28:00,
2013-06-22 20:33:00,72.8,64.8,30.06,SSW,192,0.0,0.0,76,0.00,,SKC,0.00,VWS V13.00,2013-06-23 01:33:00,
2013-06-22 20:38:00,72.2,65.0,30.06,SSW,192,0.0,0.0,78,0.00,,SKC,0.00,VWS V13.00,2013-06-23 01:38:00,
2013-06-22 20:43:00,71.7,64.5,30.06,SSW,192,0.0,0.0,78,0.00,,SKC,0.00,VWS V13.00,2013-06-23 01:43:00,
2013-06-22 20:48:00,71.3,65.2,30.07,SSW,192,0.0,0.0,81,0.00,,SKC,0.00,VWS V13.00,2013-06-23 01:48:00,
2013-06-22 20:53:00,71.0,64.9,30.07,SSW,192,0.0,0.0,81,0.00,,SKC,0.00,VWS V13.00,2013-06-23 01:53:00,
2013-06-22 20:58:00,70.7,64.9,30.07,SSW,192,0.0,0.0,82,0.00,,SKC,0.00,VWS V13.00,2013-06-23 01:58:00,
2013-06-22 21:03:00,70.3,64.6,30.07,SSW,192,0.0,0.0,82,0.00,,SKC,0.00,VWS V13.00,2013-06-23 02:03:00,
2013-06-22 21:08:00,70.0,64.6,30.07,SSW,192,0.0,0.0,83,0.00,,SKC,0.00,VWS V13.00,2013-06-23 02:08:00,
2013-06-22 21:13:00,69.9,64.8,30.08,SSW,192,0.0,0.0,84,0.00,,SKC,0.00,VWS V13.00,2013-06-23 02:13:00,
2013-06-22 21:18:00,69.9,64.8,30.08,SSW,192,0.0,0.0,84,0.00,,SKC,0.00,VWS V13.00,2013-06-23 02:18:00,
2013-06-22 21:23:00,69.8,65.1,30.08,SSW,192,0.0,0.0,85,0.00,,SKC,0.00,VWS V13.00,2013-06-23 02:23:00,
2013-06-22 21:28:00,69.8,65.1,30.08,SSW,192,0.0,0.0,85,0.00,,SKC,0.00,VWS V13.00,2013-06-23 02:28:00,
2013-06-22 21:33:00,69.7,65.0,30.08,SSW,192,0.0,0.0,85,0.00,,SKC,0.00,VWS V13.00,2013-06-23 02:33:00,
2013-06-22 21:38:00,69.6,64.9,30.08,SSW,192,0.0,0.0,85,0.00,,SKC,0.00,VWS V13.00,2013-06-23 02:38:00,
2013-06-22 21:43:00,69.5,64.8,30.08,SSW,192,0.0,0.0,85,0.00,,SKC,0.00,VWS V13.00,2013-06-23 02:43:00,
2013-06-22 21:48:00,69.5,64.8,30.09,SSW,192,0.0,0.0,85,0.00,,SKC,0.00,VWS V13.00,2013-06-23 02:48:00,
2013-06-22 21:53:00,69.3,64.9,30.09,SSW,192,0.0,0.0,86,0.00,,SKC,0.00,VWS V13.00,2013-06-23 02:53:00,
2013-06-22 21:58:00,69.0,65.0,30.08,SSW,192,0.0,0.0,87,0.00,,SKC,0.00,VWS V13.00,2013-06-23 02:58:00,
2013-06-22 22:03:00,68.8,64.8,30.08,SSW,192,0.0,0.0,87,0.00,,SKC,0.00,VWS V13.00,2013-06-23 03:03:00,
2013-06-22 22:08:00,68.5,64.5,30.09,SSW,192,0.0,0.0,87,0.00,,SKC,0.00,VWS V13.00,2013-06-23 03:08:00,
2013-06-22 22:13:00,68.4,64.7,30.08,SSW,192,0.0,0.0,88,0.00,,SKC,0.00,VWS V13.00,2013-06-23 03:13:00,
2013-06-22 22:18:00,68.2,64.8,30.09,SSW,192,0.0,0.0,89,0.00,,SKC,0.00,VWS V13.00,2013-06-23 03:18:00,
2013-06-22 22:23:00,68.0,64.3,30.09,SSW,192,0.0,0.0,88,0.00,,SKC,0.00,VWS V13.00,2013-06-23 03:23:00,
2013-06-22 22:28:00,67.8,64.4,30.09,SSW,192,0.0,0.0,89,0.00,,SKC,0.00,VWS V13.00,2013-06-23 03:28:00,
2013-06-22 22:33:00,67.6,64.2,30.09,SSW,192,0.0,0.0,89,0.00,,SKC,0.00,VWS V13.00,2013-06-23 03:33:00,
2013-06-22 22:38:00,67.5,64.5,30.09,SSW,192,0.0,0.0,90,0.00,,SKC,0.00,VWS V13.00,2013-06-23 03:38:00,
2013-06-22 22:43:00,67.4,64.4,30.09,SSW,192,0.0,0.0,90,0.00,,SKC,0.00,VWS V13.00,2013-06-23 03:43:00,
2013-06-22 22:48:00,67.3,64.6,30.09,SSW,192,0.0,0.0,91,0.00,,SKC,0.00,VWS V13.00,2013-06-23 03:48:00,
2013-06-22 22:53:00,67.2,64.8,30.09,SSW,192,0.0,0.0,92,0.00,,SKC,0.00,VWS V13.00,2013-06-23 03:53:00,
2013-06-22 22:58:00,67.1,64.7,30.09,SSW,192,0.0,0.0,92,0.00,,SKC,0.00,VWS V13.00,2013-06-23 03:58:00,
2013-06-22 23:01:00,66.9,64.2,30.09,SSW,192,0.0,0.0,91,0.00,,SKC,0.00,VWS V13.00,2013-06-23 04:01:00,
2013-06-22 23:06:00,66.6,64.2,30.09,SSW,192,0.0,0.0,92,0.00,,SKC,0.00,VWS V13.00,2013-06-23 04:06:00,
2013-06-22 23:11:00,66.4,64.3,30.09,SSW,192,0.0,0.0,93,0.00,,SKC,0.00,VWS V13.00,2013-06-23 04:11:00,
2013-06-22 23:16:00,66.4,64.3,30.09,SSW,192,0.0,0.0,93,0.00,,SKC,0.00,VWS V13.00,2013-06-23 04:16:00,
2013-06-22 23:21:00,66.3,64.5,30.09,SSW,192,0.0,0.0,94,0.00,,SKC,0.00,VWS V13.00,2013-06-23 04:21:00,
2013-06-22 23:26:00,66.3,64.5,30.09,SSW,192,0.0,0.0,94,0.00,,SKC,0.00,VWS V13.00,2013-06-23 04:26:00,
2013-06-22 23:31:00,66.4,64.6,30.09,SSW,192,0.0,0.0,94,0.00,,SKC,0.00,VWS V13.00,2013-06-23 04:31:00,
2013-06-22 23:36:00,66.3,64.2,30.09,SSW,192,0.0,0.0,93,0.00,,SKC,0.00,VWS V13.00,2013-06-23 04:36:00,
2013-06-22 23:41:00,66.6,64.8,30.09,SSE,161,0.0,0.0,94,0.00,,SKC,0.00,VWS V13.00,2013-06-23 04:41:00,
2013-06-22 23:46:00,66.7,64.6,30.09,SSE,161,0.0,0.0,93,0.00,,SKC,0.00,VWS V13.00,2013-06-23 04:46:00,
2013-06-22 23:51:00,66.7,64.6,30.09,SSE,161,0.0,0.0,93,0.00,,SKC,0.00,VWS V13.00,2013-06-23 04:51:00,
2013-06-22 23:56:00,66.6,64.5,30.09,SSE,161,0.0,0.0,93,0.00,,SKC,0.00,VWS V13.00,2013-06-23 04:56:00,